Main page
METAR-TAF:

METAR-TAF

Airports :

Barbacena, Minas Gerais, Brazil

latitude: 21-15S, longitude: 043-46W, elevation: 1171 m

Current weather observation

The report was made 1 hour and 10 minutes ago, at 09:00 UTC
Wind 7 kt from the South/Southeast
Temperature 13°C
Humidity 82%
Pressure 1027 hPa
Visibility 10 km or more
Overcast at a height of 900 ft

METAR: SBBQ 230900Z 15007KT 9999 OVC009 13/10 Q1027

Time: 07:10 (10:10 UTC)


TAF: missing

Weather observations and forecasts of more than 4000 airports (METAR and TAF reports).

The available stations are represented by yellow and red dots on the map.

Hover mouse over dot to see the name of the station.

Then click to see weather observations and forecasts.

To change the map : click on the green buttons with a black cross to zoom in, on the green button with a dash to zoom out, or on the green arrows for adjacent maps.


METAR-TAF: